Trinidad, CO

10:27 PM MDT on August 25, 2016 (GMT -0600)
Stokes

Weather History for KTAD - March, 2013

Change the Weather History Date:

Sunday, March 24, 2013

  Actual Average Record
Temperature  
Mean Temperature 20 °F 44 °F  
Max Temperature 38 °F 60 °F 80 °F (2012)
Min Temperature 2 °F 28 °F 2 °F (2013)
Degree Days  
Heating Degree Days 45 21  
Month to date heating degree days 580 566  
Since 1 July heating degree days 4521 4688  
Cooling Degree Days 0 0  
Month to date cooling degree days 0 0  
Year to date cooling degree days 0 0  
Moisture  
Dew Point 10 °F    
Average Humidity 59    
Maximum Humidity 91    
Minimum Humidity 27    
Precipitation  
Precipitation T in 0.03 in 0.32 in (1969)
Month to date precipitation 0.15  
Year to date precipitation 0.53  
Sea Level Pressure  
Sea Level Pressure 30.20 in    
Wind  
Wind Speed 9 mph (NE)    
Max Wind Speed 18 mph    
Max Gust Speed 22 mph    
Visibility 8 miles    
Events Snow    
T = Trace of Precipitation, MM = Missing Value Source: NWS Daily Summary

Daily Weather History Graph

Daily Weather History Graph

Search for Another Location

Airport or City:

Trip Planner

Search our weather history database for the weather conditions in past years. The results will help you decide how hot, cold, wet, or windy it might be!

Date:

Astronomy

Mar. 24, 2013 Rise Set
Actual Time 6:54 AM MDT 7:13 PM MDT
Civil Twilight 6:28 AM MDT 7:39 PM MDT
Nautical Twilight 5:57 AM MDT 8:09 PM MDT
Astronomical Twilight 5:26 AM MDT 8:40 PM MDT
Moon 4:46 PM MDT (3/24) 5:02 AM MDT (3/24)
Length of Visible Light 13h 10m
Length of Day
12h 18m
Waxing Gibbous, 92% of the Moon is Illuminated
Mar 24
Waxing Gibbous
Mar 27
Full
Apr 2
Last Quarter
Apr 10
New
Apr 18
First Quarter

Hourly Weather History & Observations

Time (MDT) Temp. Windchill Dew Point Humidity Pressure Visibility Wind Dir Wind Speed Gust Speed Precip Events Conditions
12:46 AM 10.4 °F -1.5 °F 6.8 °F 85% 30.15 in 10.0 mi West 8.1 mph - N/A   Scattered Clouds
12:54 AM 8.1 °F -4.3 °F 3.9 °F 83% 30.31 in 10.0 mi West 8.1 mph - N/A   Partly Cloudy
1:54 AM 5.0 °F -8.1 °F 1.9 °F 87% 30.32 in 10.0 mi WSW 8.1 mph - N/A   Clear
2:54 AM 5.0 °F -10.0 °F -0.0 °F 80% 30.29 in 10.0 mi WSW 10.4 mph - N/A   Clear
3:54 AM 3.9 °F -12.2 °F -0.0 °F 84% 30.27 in 10.0 mi WSW 11.5 mph - N/A   Clear
4:54 AM 7.0 °F -9.1 °F 1.9 °F 80% 30.26 in 10.0 mi WSW 12.7 mph - N/A   Clear
5:54 AM 6.1 °F -10.9 °F 1.0 °F 80% 30.27 in 10.0 mi WSW 13.8 mph - N/A   Clear
6:54 AM 5.0 °F -12.3 °F -0.0 °F 80% 30.27 in 10.0 mi WSW 13.8 mph - N/A   Clear
7:54 AM 9.0 °F -7.3 °F 1.9 °F 73% 30.26 in 10.0 mi WSW 13.8 mph - N/A   Clear
8:54 AM 14.0 °F 0.5 °F 7.0 °F 74% 30.24 in 10.0 mi WSW 11.5 mph - N/A   Clear
9:54 AM 21.0 °F - 9.0 °F 60% 30.20 in 10.0 mi Calm Calm - N/A   Clear
10:54 AM 26.1 °F 20.5 °F 12.0 °F 55% 30.16 in 10.0 mi SSE 4.6 mph - N/A   Clear
11:54 AM 30.9 °F 27.5 °F 9.0 °F 40% 30.13 in 10.0 mi NNW 3.5 mph - N/A   Clear
1:54 PM 36.0 °F 29.0 °F 8.1 °F 31% 30.08 in 10.0 mi ENE 9.2 mph - N/A   Mostly Cloudy
2:54 PM 35.1 °F 26.9 °F 8.1 °F 33% 30.07 in 10.0 mi East 11.5 mph 18.4 mph N/A   Overcast
3:54 PM 33.1 °F 25.5 °F 9.0 °F 37% 30.09 in 10.0 mi East 9.2 mph - N/A   Overcast
4:54 PM 30.9 °F 20.7 °F -0.0 °F 27% 30.11 in 10.0 mi NE 13.8 mph - N/A   Overcast
5:54 PM 28.0 °F 16.5 °F 10.0 °F 47% 30.17 in 10.0 mi NE 15.0 mph - N/A   Overcast
6:54 PM 26.1 °F 14.0 °F 12.9 °F 58% 30.22 in 10.0 mi NE 15.0 mph - N/A   Overcast
7:54 PM 25.0 °F 12.6 °F 12.9 °F 60% 30.25 in 10.0 mi NE 15.0 mph - N/A   Overcast
8:54 PM 23.0 °F 13.1 °F 16.0 °F 74% 30.27 in 4.0 mi NE 9.2 mph - 0.00 in Snow Light Snow
9:01 PM 23.0 °F 14.7 °F 17.6 °F 80% 30.13 in 1.8 mi ENE 6.9 mph - 0.00 in Snow Light Snow
9:09 PM 21.2 °F 12.6 °F 19.4 °F 93% 30.14 in 1.5 mi ENE 6.9 mph - 0.00 in Snow Light Snow
9:21 PM 21.2 °F 11.7 °F 17.6 °F 86% 30.14 in 2.0 mi ENE 8.1 mph - 0.00 in Snow Light Snow
9:28 PM 21.2 °F 11.7 °F 17.6 °F 86% 30.15 in 2.5 mi ENE 8.1 mph - 0.00 in Snow Light Snow
9:42 PM 21.2 °F 13.6 °F 17.6 °F 86% 30.15 in 3.0 mi ENE 5.8 mph - 0.00 in Snow Light Snow
9:54 PM 21.0 °F 14.6 °F 18.0 °F 88% 30.27 in 2.5 mi ENE 4.6 mph - 0.00 in Snow Light Snow
10:32 PM 21.2 °F - 17.6 °F 86% 30.16 in 2.5 mi Calm Calm - 0.00 in Snow Light Snow
10:40 PM 21.2 °F 16.4 °F 17.6 °F 86% 30.15 in 3.0 mi ENE 3.5 mph - 0.00 in Snow Light Snow
10:54 PM 19.9 °F - 17.1 °F 89% 30.27 in 4.0 mi Calm Calm - 0.00 in Snow Light Snow
11:21 PM 17.6 °F - 15.8 °F 93% 30.16 in 10.0 mi Calm Calm - 0.00 in   Overcast
11:54 PM 19.0 °F - 16.0 °F 88% 30.26 in 10.0 mi Calm Calm - 0.00 in   Overcast